GFSSW_500_spd_159.txt.gz
Wind_Speed
17 18 21 23 27 31 33 37 40 43 46 46 47 45 44 43 44 45 45 46 46 48 50 53 57 59 60 62 63 62 63 63 57 56 57 53 51 44 54 65 60 55 49 45 56
19 20 23 27 31 34 37 41 44 48 48 49 49 48 48 49 50 51 50 50 50 52 52 54 56 60 65 66 68 69 69 64 61 60 61 56 56 56 53 55 64 65 59 49 55
22 24 27 30 34 38 42 45 49 51 51 51 51 51 52 53 55 51 52 54 56 58 58 57 58 58 61 66 69 70 75 70 67 68 67 66 65 63 62 55 55 65 65 53 57
24 26 31 34 37 41 46 50 52 53 53 53 54 54 53 52 54 52 54 56 57 57 57 57 57 55 55 59 68 70 73 74 75 76 75 73 72 66 67 57 56 56 66 62 64
26 29 34 37 40 45 49 53 53 54 55 57 57 57 55 54 57 47 52 52 48 43 41 41 42 47 49 52 58 68 70 75 75 79 80 77 75 70 68 64 63 59 64 70 68
29 32 36 39 41 46 51 55 56 56 57 58 59 59 59 54 55 50 45 39 37 33 35 36 35 38 38 40 47 53 65 72 77 80 78 82 82 75 67 69 68 64 62 70 70
31 33 37 41 45 49 54 57 58 58 59 60 61 60 57 52 50 44 39 36 30 31 32 33 32 33 35 37 38 40 47 59 72 80 81 80 88 76 69 71 69 67 64 65 72
34 36 39 43 47 51 56 58 59 60 61 63 62 60 52 48 45 35 32 27 29 28 31 32 31 30 32 33 35 40 46 50 54 64 78 79 88 77 77 74 71 70 68 62 64
37 39 41 44 49 54 58 60 60 60 63 63 61 55 50 39 33 30 22 23 25 32 30 33 33 32 26 30 33 32 31 33 37 38 42 67 85 81 76 78 73 71 70 64 62
39 39 42 46 51 56 60 61 63 60 60 61 54 44 41 28 26 19 21 20 23 29 35 31 31 26 25 29 29 21 21 22 27 31 37 53 83 75 78 77 77 74 72 66 63
40 41 45 49 53 57 60 63 66 70 68 61 48 34 29 28 18 16 19 25 28 28 29 30 28 22 21 23 25 26 27 31 34 32 29 41 43 61 78 77 78 75 73 69 65
42 43 45 49 53 57 61 63 64 65 58 52 39 30 24 18 13 17 23 23 24 27 29 30 26 19 24 30 30 29 29 30 30 31 34 38 42 41 48 77 78 78 76 68 64
43 43 46 49 54 57 61 62 64 64 58 42 33 25 22 14 10 15 19 20 19 21 25 26 22 20 29 27 31 30 30 28 31 27 30 35 39 45 47 67 77 78 79 70 66
44 43 46 51 54 59 62 64 64 61 54 49 34 21 21 11 15 13 15 15 19 22 24 18 18 19 25 30 31 32 26 28 29 28 32 30 37 40 55 55 80 82 81 71 68
46 45 47 50 53 57 61 63 61 55 47 42 35 23 20 18 20 16 13 18 22 19 23 11 16 17 21 23 27 25 24 26 28 29 30 31 36 32 43 52 67 83 79 73 69
51 46 47 48 51 56 60 61 55 55 36 33 36 25 21 18 21 23 25 24 23 21 21 18 17 18 19 21 24 23 24 24 23 25 33 29 33 34 41 49 73 82 76 70 65
53 47 47 48 51 55 59 59 60 39 28 30 27 24 21 19 23 26 26 27 27 24 21 23 19 17 18 20 22 23 19 21 22 24 23 20 26 28 27 40 59 74 73 70 62
52 47 45 46 51 55 59 57 52 39 27 30 29 24 21 21 19 21 21 24 24 26 24 22 16 20 17 18 17 20 20 20 20 17 21 18 23 19 36 38 37 45 70 70 62
54 46 45 47 49 53 56 58 49 38 30 25 28 24 21 19 22 21 21 23 23 26 25 24 19 19 20 21 18 16 19 14 23 20 22 18 22 16 39 40 41 39 42 61 61
48 42 41 43 48 50 56 53 48 39 37 37 28 25 21 17 17 21 22 24 28 27 27 28 31 28 23 21 18 15 17 20 21 16 18 12 18 15 42 37 39 38 53 56 62
45 41 39 43 45 52 53 52 45 40 38 42 27 22 21 20 17 20 26 28 29 29 26 29 33 30 26 17 16 20 20 19 20 17 14 16 13 24 23 40 36 40 61 68 66
42 37 39 42 46 48 49 50 44 38 38 39 27 18 20 20 16 24 27 31 31 30 29 31 31 24 19 15 14 15 18 21 19 17 11 17 22 28 30 32 46 50 63 66 65
41 35 34 41 41 46 50 51 45 32 35 34 30 26 25 25 23 25 28 29 30 30 29 27 25 24 11 6 12 13 13 16 18 18 18 20 9 29 35 21 48 49 56 62 60
39 36 40 42 44 48 49 48 42 30 31 27 32 30 24 22 29 32 30 31 24 22 18 21 15 16 15 14 14 17 15 15 17 18 11 13 19 24 44 37 40 35 42 57 58
39 37 39 42 43 45 45 46 43 33 27 29 21 27 28 27 24 26 24 21 22 15 21 22 23 23 20 17 21 23 18 19 17 15 23 16 19 11 52 41 52 44 41 53 63
40 38 41 43 44 44 47 47 44 32 27 29 29 20 20 23 28 25 27 21 17 18 18 22 18 17 16 10 11 10 14 16 17 21 23 23 21 10 54 51 55 50 41 55 71
46 43 43 43 46 46 44 45 43 36 29 30 30 19 19 22 24 25 24 22 21 20 20 20 16 14 13 10 7 1 8 8 11 15 18 20 23 10 53 48 52 63 44 65 62

GFSSW_500_spd_162.txt.gz
Wind_Speed
16 15 16 19 23 25 27 30 34 36 38 38 40 41 42 43 44 46 46 47 46 47 46 45 47 51 55 57 59 61 61 61 57 55 52 48 48 40 26 35 49 46 50 32 52
17 17 19 22 26 28 30 33 37 39 40 41 43 45 47 48 51 52 51 51 54 54 54 52 51 52 55 58 62 66 68 64 61 60 59 56 52 50 37 28 37 45 56 41 55
20 21 23 26 30 31 33 36 40 42 44 44 45 48 49 53 56 57 55 58 59 59 58 58 58 58 58 60 62 64 69 67 67 66 65 63 62 52 48 39 36 51 59 61 58
23 25 27 28 31 32 35 38 42 44 46 48 50 53 56 59 62 65 58 60 59 58 59 59 61 61 59 57 60 62 66 69 71 70 72 73 70 70 60 56 42 41 49 56 59
26 26 27 29 32 34 36 40 44 47 51 53 56 59 61 63 66 63 58 60 56 52 49 47 46 47 49 49 48 54 62 66 68 71 75 73 76 75 72 67 58 46 41 51 61
30 31 30 31 33 35 39 42 46 49 53 56 61 64 65 65 70 64 55 48 42 39 37 36 37 38 39 41 43 43 50 59 66 70 73 75 76 77 74 71 72 65 58 60 58
36 37 32 32 34 37 41 44 47 51 55 59 63 65 63 61 60 62 43 38 31 31 32 31 32 33 31 29 30 32 36 38 52 64 67 71 77 80 77 73 75 74 70 67 61
38 40 35 34 36 39 42 46 50 54 58 62 64 65 63 59 51 42 33 29 27 23 22 25 26 27 28 29 30 33 37 39 37 43 54 55 75 78 77 80 76 73 70 68 64
41 43 38 36 39 41 45 50 52 56 61 65 62 62 62 53 34 27 24 18 16 19 20 19 25 29 30 31 34 32 30 31 35 37 40 43 65 76 74 79 82 78 73 69 67
42 44 39 38 40 43 46 51 54 55 60 59 58 63 55 34 28 19 16 13 16 19 20 25 23 25 23 26 29 17 22 28 29 23 32 37 35 51 50 71 80 81 77 71 68
42 43 43 41 42 45 47 52 57 61 64 61 58 52 41 29 21 15 12 13 18 20 20 21 26 24 20 16 23 25 27 30 32 24 34 38 42 50 30 36 66 79 78 76 70
44 47 47 45 44 44 49 53 58 60 58 55 44 46 32 23 16 14 12 16 20 22 21 23 25 20 16 21 26 29 32 27 26 27 28 33 35 38 38 39 40 69 77 78 75
44 48 49 48 43 44 45 51 56 58 58 52 47 43 28 16 14 15 15 17 22 21 23 24 19 18 25 24 27 33 35 30 29 27 30 33 39 42 48 46 53 50 72 75 77
48 50 49 50 46 47 50 52 55 57 55 54 47 40 32 20 13 14 11 16 16 21 22 20 18 20 19 20 26 33 31 33 32 31 31 26 37 32 28 41 52 54 62 76 78
49 52 52 49 45 43 46 50 52 53 48 48 35 32 31 24 22 17 13 13 19 20 24 16 20 22 22 20 22 26 29 30 30 32 32 31 34 34 31 40 45 54 73 72 73
49 51 51 46 43 42 44 47 49 51 42 35 34 31 29 25 21 22 23 24 22 21 21 21 21 22 20 23 23 26 26 29 29 28 32 15 28 25 30 33 35 53 68 78 76
51 50 46 43 39 40 43 45 48 47 41 34 31 32 28 23 21 23 23 23 27 29 25 25 25 23 20 21 21 21 23 25 28 27 28 20 29 28 27 33 38 36 59 72 79
50 48 46 39 36 39 42 42 48 41 37 34 36 31 24 25 21 21 23 23 25 27 30 31 22 26 23 27 21 23 21 25 27 22 26 28 32 29 13 21 43 38 53 64 79
51 46 46 38 35 39 41 45 42 44 41 36 35 31 16 19 25 22 22 25 25 29 31 33 27 24 26 28 20 25 23 21 28 26 30 20 20 26 16 19 41 40 45 57 76
49 45 45 39 37 40 42 46 45 44 38 33 32 28 17 14 17 18 19 26 29 31 33 34 35 25 28 26 20 27 19 20 28 28 26 17 21 24 9 17 40 35 32 27 49
47 46 42 39 38 41 46 43 42 41 37 34 30 28 23 17 16 19 25 28 30 32 34 36 37 29 32 22 17 20 19 21 22 23 23 23 18 22 16 26 30 36 42 35 39
43 43 39 36 39 40 43 43 44 41 35 32 33 31 27 24 18 23 26 32 35 33 32 29 30 24 19 20 15 15 19 22 26 23 25 23 26 17 17 34 25 27 43 35 33
42 44 43 42 42 43 45 47 44 41 35 28 30 32 30 27 24 22 26 28 29 28 26 23 26 25 18 10 12 13 16 20 22 23 20 23 22 25 22 33 32 29 45 47 43
44 43 46 46 45 42 45 43 41 42 38 33 28 30 30 22 25 29 25 25 21 21 23 27 24 26 21 20 19 22 21 20 24 20 16 20 13 16 31 40 36 30 39 53 51
43 45 46 46 43 42 43 45 46 42 40 35 29 33 35 25 15 22 23 20 21 22 24 25 26 27 19 18 18 18 25 26 20 17 23 17 19 17 25 45 37 34 40 61 57
43 43 44 48 46 46 46 44 42 42 39 36 30 30 34 22 25 17 19 19 19 21 22 24 26 22 16 16 18 14 11 18 22 21 24 20 22 12 30 41 41 39 57 64 55
42 45 48 48 44 45 43 44 40 40 40 39 33 30 27 19 20 21 22 19 20 21 22 20 21 19 18 17 13 16 7 7 10 17 20 25 23 21 20 39 59 47 55 53 50

GFSSW_500_spd_168.txt.gz
Wind_Speed
15 14 15 16 17 18 19 19 19 21 23 24 24 25 26 30 30 30 32 35 35 36 39 42 43 44 44 44 44 46 51 50 47 49 49 46 47 48 50 42 55 51 46 37 39
19 19 20 22 20 20 21 21 21 22 24 25 26 27 31 34 35 35 37 39 42 45 46 48 50 51 52 53 55 57 57 55 52 54 56 51 54 51 55 49 51 58 53 44 52
23 22 25 27 23 21 21 21 21 24 26 28 30 32 35 37 38 41 42 45 47 49 54 55 56 56 57 59 59 60 65 61 60 61 62 60 59 56 60 54 50 65 58 57 54
23 24 26 28 26 24 22 22 24 27 29 32 36 39 40 42 45 47 48 50 52 56 59 60 61 62 60 58 58 60 63 66 67 67 67 67 66 63 64 57 55 62 68 67 60
22 25 27 28 27 27 27 28 30 31 33 36 39 43 46 48 50 50 52 54 58 60 61 59 58 56 49 45 44 49 55 62 64 65 69 71 72 70 69 62 58 62 68 73 71
24 26 28 28 29 30 32 35 35 35 37 39 43 46 49 50 50 51 54 58 59 58 54 48 39 35 31 28 31 34 40 45 51 56 61 63 67 72 65 65 61 64 65 73 76
26 29 28 29 33 36 35 42 39 39 40 43 46 48 49 50 52 51 54 55 54 46 35 24 19 16 18 21 25 27 31 35 36 41 48 53 64 67 66 62 64 68 69 63 73
28 27 28 29 34 39 44 45 44 42 42 44 46 48 48 50 50 52 48 49 40 24 13 11 10 11 12 14 17 20 22 21 23 33 34 37 54 59 60 65 66 75 68 67 73
26 27 30 33 40 46 46 48 43 41 42 42 44 44 45 45 45 47 47 37 16 7 6 10 13 13 16 19 20 25 27 26 26 29 31 35 39 45 57 62 66 77 76 72 71
30 31 34 38 45 48 49 46 43 43 41 39 41 42 43 44 39 39 36 20 10 9 12 16 15 12 20 24 24 26 28 25 28 30 37 40 39 37 41 50 63 69 85 76 73
34 38 43 46 48 50 48 42 42 39 37 37 39 39 40 37 38 38 25 16 14 14 13 18 14 15 19 24 23 23 23 23 21 23 39 41 39 42 39 45 50 63 76 84 75
36 42 46 50 49 49 44 43 43 39 37 37 39 37 35 35 36 30 23 18 18 15 18 12 15 21 22 19 20 21 26 19 22 25 34 35 36 34 32 39 41 54 70 85 82
40 44 47 48 49 46 43 42 40 39 38 38 38 36 33 32 32 29 28 23 21 17 14 14 19 22 22 21 25 20 23 25 25 25 37 38 37 30 25 33 36 39 61 77 88
42 44 46 47 47 42 41 40 38 38 43 40 36 34 32 34 37 38 30 21 15 16 16 17 20 22 21 21 25 27 22 27 30 27 32 37 44 33 31 31 32 34 36 68 84
43 45 45 44 42 42 40 39 38 40 41 40 37 35 33 36 38 35 33 18 14 15 14 14 20 23 22 25 26 24 25 30 29 33 32 35 42 24 30 35 32 31 34 42 78
43 43 43 44 42 40 39 37 39 38 35 36 36 35 34 32 32 29 18 19 22 14 17 17 21 27 27 25 26 25 27 27 24 28 36 25 29 6 13 17 29 36 36 38 43
41 41 41 41 40 39 38 39 37 36 34 35 32 32 32 33 31 24 13 20 24 17 16 19 24 29 30 29 23 26 25 31 30 30 30 22 32 24 12 17 23 29 30 38 44
38 39 39 39 38 38 37 36 34 36 34 33 36 32 31 32 31 24 19 21 20 21 20 24 18 24 25 27 26 23 26 29 41 37 31 31 34 23 19 26 24 26 34 31 34
35 36 38 38 38 39 40 38 37 38 35 33 35 35 28 23 29 26 26 25 20 21 25 28 25 23 23 23 25 28 26 26 31 35 38 38 32 28 27 27 28 28 30 33 39
32 34 36 37 39 39 39 37 38 37 33 33 34 35 37 29 27 28 27 24 24 22 26 28 26 16 15 20 19 25 24 26 32 38 42 41 35 28 27 26 27 28 26 28 33
30 33 34 37 39 42 38 38 40 38 33 33 35 37 38 36 28 30 32 21 21 22 26 28 26 15 17 25 22 23 25 23 25 31 40 40 38 33 31 28 32 27 29 28 31
30 32 35 39 39 42 40 43 43 39 33 34 35 38 38 36 30 32 21 20 22 23 22 24 27 23 21 22 25 21 18 21 25 28 32 33 32 28 29 32 28 32 22 33 37
30 33 36 38 39 40 41 43 41 38 35 35 36 37 37 32 34 28 20 20 22 25 27 24 25 31 25 23 23 16 16 21 27 33 30 33 36 31 28 28 32 31 30 31 39
31 31 35 36 40 41 41 41 39 37 37 35 36 36 38 27 28 30 24 24 24 23 23 25 23 23 25 24 23 19 19 23 25 25 24 31 30 26 29 26 30 22 21 25 39
29 33 35 36 38 41 42 42 42 38 35 33 30 34 35 34 27 26 23 22 25 28 21 20 20 25 22 22 19 21 23 23 29 23 28 22 31 21 24 27 28 26 17 24 44
30 33 34 36 37 39 42 42 43 40 36 27 29 33 38 37 35 29 21 25 20 15 18 21 25 23 12 19 23 25 14 13 16 19 21 18 22 23 24 19 23 15 13 26 46
32 35 34 35 37 38 42 44 43 38 30 32 33 38 38 40 33 30 21 19 17 19 20 24 28 29 12 18 19 17 15 22 17 16 17 15 18 23 21 15 21 16 24 34 59

GFSSW_500_spd_171.txt.gz
Wind_Speed
15 14 16 18 15 14 16 18 19 20 20 20 22 23 25 26 27 29 32 32 32 33 34 35 38 38 39 41 43 45 48 46 45 45 48 47 50 49 47 46 46 58 58 54 48
16 17 19 21 21 19 17 16 16 17 18 22 25 26 27 30 33 34 36 38 38 38 39 41 42 43 46 48 49 50 52 52 50 51 52 50 55 52 55 50 50 53 62 60 55
15 17 20 21 21 22 21 21 22 23 24 25 27 30 32 34 36 38 40 42 42 43 45 47 48 49 52 52 52 55 56 56 56 57 60 55 56 57 62 59 52 51 62 64 61
15 18 20 19 19 21 21 23 27 28 27 27 28 30 32 36 40 41 44 44 44 46 49 51 54 56 56 56 56 54 56 59 59 59 60 60 59 58 63 64 60 56 59 67 67
17 19 17 16 18 21 28 29 32 34 36 36 35 35 36 39 42 45 46 47 47 49 51 54 56 57 56 54 54 57 58 60 62 62 65 67 66 62 62 64 65 59 59 66 72
18 16 16 17 20 28 32 34 38 39 40 41 39 39 40 43 45 45 46 47 48 49 50 50 49 47 47 47 47 46 47 45 52 56 63 68 71 71 65 68 64 64 60 64 73
18 16 16 20 24 32 37 39 42 42 42 42 42 41 42 43 45 45 44 47 46 48 48 47 45 37 27 22 21 21 24 27 28 38 50 61 71 73 70 67 64 65 64 67 70
18 19 22 27 31 36 41 42 44 44 43 43 42 41 38 38 39 39 41 40 42 46 43 39 24 14 11 11 14 16 16 15 22 32 39 48 62 61 63 69 70 70 70 71 71
22 24 28 32 37 40 43 45 48 46 42 41 37 36 37 37 39 39 37 38 40 35 29 21 15 15 16 17 17 21 22 22 23 30 33 43 46 44 51 62 70 68 72 75 75
26 28 32 36 41 43 46 48 45 42 39 34 33 34 37 36 36 36 36 34 31 27 21 20 17 16 19 22 20 22 25 25 21 27 36 39 42 35 35 45 57 64 70 80 77
29 32 36 37 40 44 46 41 39 38 35 31 33 32 33 36 35 34 32 33 31 27 21 21 19 17 19 22 24 24 24 23 20 24 34 36 41 34 36 38 38 55 65 78 80
31 32 35 37 41 42 42 42 40 36 34 34 30 30 33 34 34 33 33 34 27 23 24 20 19 22 19 18 23 24 26 25 22 22 30 33 37 35 35 38 35 34 54 71 86
33 34 36 38 39 39 40 40 37 36 35 32 34 34 32 30 29 32 35 33 27 19 21 20 18 21 21 18 21 23 22 27 30 24 30 34 33 33 33 36 34 37 40 62 82
34 34 36 35 37 38 38 37 36 37 36 33 31 31 30 31 32 33 35 33 19 13 16 16 17 22 20 19 24 28 25 31 30 32 29 31 35 27 27 30 28 26 38 48 74
35 35 34 34 37 37 38 37 38 34 38 34 32 31 33 35 34 32 31 32 20 13 13 13 18 22 22 23 26 31 31 34 34 33 32 32 32 26 20 31 34 34 34 36 61
37 35 33 34 35 37 37 38 36 35 35 32 31 32 35 34 33 30 28 31 27 15 14 17 20 22 22 26 30 33 37 37 34 34 36 23 23 19 11 19 28 32 32 33 43
37 34 31 33 34 37 39 39 36 34 36 35 29 31 35 36 35 31 27 27 26 27 20 18 23 24 28 33 32 35 34 38 38 36 37 30 29 25 14 15 22 24 29 30 30
34 32 29 32 35 36 37 38 39 38 37 34 32 32 35 38 35 33 33 29 27 27 22 15 15 23 30 31 32 27 31 32 37 39 40 40 36 28 23 24 29 26 25 26 29
32 30 30 31 34 36 36 38 40 40 41 32 32 35 36 36 36 35 32 31 32 28 23 24 19 19 24 23 27 25 23 25 30 32 39 40 39 36 34 26 27 30 28 31 34
29 29 30 30 32 35 37 38 40 40 40 35 36 36 38 37 38 34 34 36 25 18 22 24 26 17 15 23 29 28 29 30 27 31 33 37 42 41 36 31 30 33 33 31 34
29 29 30 31 34 35 38 38 39 40 40 35 36 35 37 37 36 34 34 30 25 21 22 25 26 15 19 23 25 27 28 27 28 28 33 36 32 35 31 31 26 30 30 32 32
28 27 29 30 34 34 37 38 39 40 40 37 36 36 32 37 38 34 36 32 25 24 23 25 27 21 20 20 20 24 20 19 22 28 32 35 32 31 28 28 33 31 28 32 34
24 28 28 30 31 32 35 39 40 40 40 37 32 33 34 37 40 38 39 34 28 26 26 25 26 27 19 22 22 19 19 21 26 29 32 31 29 36 29 29 30 28 27 29 30
28 27 30 31 32 32 34 37 39 41 40 37 31 34 36 37 38 40 38 38 30 25 27 31 21 25 28 28 29 23 17 21 29 36 35 31 28 22 27 31 30 28 33 31 32
31 29 30 32 33 34 37 39 40 40 41 42 34 36 37 42 47 40 37 35 29 25 20 22 23 25 25 26 26 22 23 19 21 21 29 31 26 22 27 27 23 25 29 30 37
32 33 32 33 34 36 40 41 42 42 43 41 38 33 39 44 41 40 37 35 23 23 22 24 27 30 31 31 23 22 23 21 20 27 26 28 25 25 21 23 24 22 27 31 27
34 33 31 34 36 39 40 41 41 42 41 44 42 38 38 38 38 39 36 34 23 20 21 22 27 36 29 24 17 17 18 20 19 23 25 23 23 20 19 25 22 21 23 13 18

GFSSW_500_spd_174.txt.gz
Wind_Speed
12 13 15 17 16 15 14 14 13 14 14 16 18 20 22 23 25 27 30 32 33 35 35 36 36 37 39 39 41 43 45 44 45 46 47 46 52 51 49 46 48 49 57 54 51
11 13 15 15 14 16 15 18 18 19 19 19 19 22 24 27 29 31 34 36 38 39 40 40 41 41 43 45 46 47 48 49 48 48 51 49 48 51 53 52 49 52 51 58 55
11 13 14 11 11 15 18 19 20 21 22 24 26 28 29 31 32 34 37 39 40 42 44 44 43 43 45 48 50 51 52 53 53 53 52 51 52 51 53 55 54 54 56 54 61
13 14 10 9 9 16 20 22 25 28 30 31 32 34 35 36 38 39 41 43 44 47 47 47 45 45 47 49 52 53 56 57 56 57 58 58 58 56 56 56 57 57 56 60 57
15 12 10 10 13 17 23 28 31 33 34 37 38 38 39 39 41 43 45 45 44 45 43 43 43 43 44 47 49 51 53 54 56 57 60 61 63 64 62 62 61 61 59 61 65
14 13 13 16 20 24 29 33 36 39 41 43 42 41 41 43 43 43 45 44 43 42 40 40 40 42 42 44 47 48 49 50 51 54 57 61 63 66 66 69 66 65 62 64 68
16 16 17 21 24 28 33 36 39 42 43 42 42 43 43 42 42 42 41 41 40 39 39 39 41 43 45 45 43 42 40 38 41 45 48 57 61 64 68 70 71 71 66 66 69
17 19 21 26 30 31 34 37 39 40 40 41 42 41 40 39 37 39 38 36 37 38 38 39 40 42 41 31 25 23 20 18 20 22 27 33 44 45 52 61 69 70 69 68 73
21 23 25 26 28 31 33 35 37 38 41 41 39 39 38 38 36 34 36 39 38 37 39 40 40 35 26 25 22 23 21 21 20 26 29 31 26 22 32 39 52 66 69 67 73
25 26 26 27 29 31 35 37 38 40 41 38 38 40 37 36 35 37 38 37 36 38 40 40 35 27 27 26 25 25 23 23 20 22 26 26 24 26 30 37 33 46 63 65 72
27 28 28 29 31 33 34 35 38 38 36 36 37 34 33 34 35 36 35 32 36 37 40 39 31 30 26 25 26 26 25 24 22 25 25 26 25 25 25 30 36 30 44 59 64
28 30 31 32 33 34 35 34 35 36 36 36 36 33 29 30 33 35 37 36 36 39 39 38 28 26 25 24 24 25 28 26 24 24 32 31 26 27 28 25 28 32 32 42 59
30 34 34 34 33 34 35 37 37 38 37 32 37 34 32 30 33 36 39 36 38 35 34 29 17 25 27 25 26 27 27 24 25 23 29 36 29 31 30 29 24 25 33 36 48
33 35 34 34 33 34 36 38 37 38 38 38 40 36 34 33 34 37 38 40 40 37 29 25 20 22 26 25 25 28 25 28 30 32 31 33 37 32 28 28 21 22 30 37 37
34 35 34 33 32 33 35 36 37 37 39 40 41 37 35 36 38 41 40 39 41 38 32 22 22 23 25 25 25 28 31 33 35 37 39 41 42 34 27 20 27 27 28 36 43
36 35 33 32 31 32 34 35 35 37 38 39 37 32 35 36 39 40 39 40 43 38 33 26 23 25 24 24 27 31 34 36 38 39 39 38 39 30 19 20 26 28 29 29 39
36 34 32 30 31 31 33 34 34 35 38 39 37 31 33 35 38 38 38 40 37 36 32 26 25 25 22 25 30 33 35 35 36 34 33 36 37 28 22 14 17 21 20 33 39
36 34 31 30 30 31 33 34 34 34 35 38 38 34 34 35 37 37 38 40 40 38 31 27 17 19 23 29 34 32 28 32 35 34 35 35 31 31 30 26 28 24 20 21 25
38 35 31 29 29 31 33 34 35 36 37 39 40 40 35 34 34 36 38 40 40 36 30 20 7 12 24 29 33 31 30 30 33 33 39 36 34 30 29 26 25 29 30 26 27
38 35 30 29 29 31 32 33 35 37 38 40 41 39 36 34 34 39 42 43 40 38 31 25 17 13 23 27 27 28 29 30 30 34 39 33 31 30 27 25 27 29 32 27 29
38 35 32 30 29 31 33 31 35 38 40 40 42 41 36 38 38 39 42 46 43 37 33 29 27 17 19 25 21 25 25 30 29 28 32 33 27 26 23 23 24 26 34 33 31
38 36 34 32 31 30 33 33 35 39 41 41 41 42 40 40 40 40 45 42 43 39 34 27 29 25 21 26 23 21 25 26 24 28 32 34 32 27 27 22 23 23 30 31 34
36 35 34 33 33 32 33 36 38 41 43 42 41 41 45 38 41 42 41 40 41 37 34 27 25 28 16 20 25 30 29 29 28 30 30 37 30 32 26 22 26 25 25 36 33
39 35 33 34 35 34 33 36 41 43 43 43 41 40 45 41 41 41 38 38 37 38 29 27 24 27 28 28 30 32 26 25 28 33 32 29 24 21 29 33 26 28 30 33 34
39 35 34 38 39 35 35 38 43 42 42 44 43 40 43 44 42 37 38 38 34 36 30 27 30 28 24 30 32 31 31 26 29 30 34 31 37 32 29 28 27 29 32 32 32
39 36 36 38 40 38 39 41 41 41 41 43 44 42 41 41 42 37 37 38 36 34 26 24 26 29 27 33 33 23 19 21 23 26 31 32 34 35 27 28 27 26 29 30 32
39 40 41 38 37 38 38 39 39 41 41 45 46 44 42 40 40 38 37 39 38 33 26 26 26 31 29 35 27 16 17 18 19 24 31 34 35 30 20 22 22 24 27 28 30